Total_Precipitation_Accumulation
3.12 3.14 3.06 3.19 3.18 3.18 3.04 2.84 2.71 2.63 2.50 2.33 2.21 2.26 2.25 2.18 2.14 2.17 2.08 2.16 2.26 2.32 2.36 2.46 2.56 2.66 2.83 2.87 2.94 2.96 3.04 3.10 2.97 2.53 2.40 2.39 2.38 2.31 2.37 2.23 2.11 2.03 1.85
2.80 2.94 3.01 3.07 3.00 2.90 2.71 2.58 2.50 2.38 2.24 2.19 2.17 2.21 2.19 2.10 2.09 2.01 1.88 1.94 2.08 2.16 2.20 2.28 2.32 2.42 2.55 2.50 2.60 2.62 2.68 2.80 2.80 2.70 2.66 2.56 2.52 2.46 2.35 2.17 1.86 1.63 1.58
2.54 2.57 2.72 2.74 2.64 2.55 2.49 2.44 2.36 2.23 2.16 2.18 2.19 2.19 2.19 2.15 2.13 2.06 2.01 1.96 1.89 1.88 1.96 2.00 2.06 2.17 2.16 2.10 2.12 2.13 2.24 2.35 2.63 2.63 2.52 2.63 2.54 2.51 2.61 2.27 1.99 1.97 1.49
2.48 2.64 2.70 2.62 2.49 2.40 2.26 2.11 2.03 1.96 2.00 2.10 2.07 2.00 1.98 1.92 1.83 1.87 1.92 1.89 1.80 1.75 1.74 1.74 1.72 1.69 1.71 1.77 1.78 1.86 2.02 2.33 2.58 2.55 2.36 2.33 2.35 2.32 2.57 2.42 2.29 2.17 1.85
2.46 2.45 2.38 2.32 2.29 2.27 2.20 2.05 1.92 1.81 1.73 1.86 1.85 1.81 1.76 1.64 1.52 1.57 1.64 1.64 1.70 1.67 1.63 1.59 1.51 1.50 1.55 1.52 1.43 1.61 1.90 2.22 2.38 2.42 2.34 2.23 2.16 2.22 2.27 2.16 2.14 2.18 2.07
2.18 2.19 2.10 2.09 2.20 2.19 2.13 2.00 1.87 1.79 1.72 1.74 1.73 1.64 1.53 1.31 1.33 1.36 1.35 1.43 1.55 1.63 1.60 1.49 1.41 1.40 1.36 1.31 1.28 1.39 1.58 1.79 1.99 2.14 2.13 2.10 2.07 2.10 2.20 2.20 2.24 2.31 2.19
2.04 1.97 1.99 2.00 2.00 2.01 1.86 1.78 1.80 1.84 1.73 1.64 1.56 1.47 1.36 1.28 1.26 1.20 1.24 1.32 1.44 1.53 1.56 1.57 1.35 1.18 1.30 1.29 1.32 1.35 1.36 1.45 1.62 1.86 1.99 1.93 2.00 2.10 2.33 2.30 2.35 2.38 2.23
1.99 1.86 1.80 1.82 1.78 1.78 1.79 1.78 1.77 1.78 1.72 1.63 1.50 1.40 1.34 1.21 1.19 1.15 1.17 1.21 1.39 1.43 1.44 1.46 1.50 1.45 1.37 1.39 1.37 1.35 1.31 1.34 1.44 1.53 1.72 1.78 1.78 1.95 2.20 2.23 2.28 2.31 2.21
1.71 1.67 1.59 1.58 1.64 1.68 1.68 1.78 1.80 1.72 1.65 1.54 1.45 1.44 1.40 1.25 1.18 1.10 1.16 1.24 1.36 1.34 1.27 1.26 1.25 1.25 1.28 1.36 1.44 1.51 1.47 1.41 1.26 1.32 1.39 1.52 1.65 1.77 1.91 2.01 2.18 2.40 2.35
1.61 1.61 1.52 1.50 1.54 1.60 1.62 1.69 1.67 1.67 1.64 1.50 1.42 1.43 1.42 1.36 1.18 1.03 1.11 1.14 1.18 1.21 1.24 1.20 1.13 1.05 1.05 1.07 1.16 1.42 1.56 1.48 1.37 1.39 1.50 1.64 1.74 1.82 1.83 1.89 2.09 2.30 2.33
1.45 1.55 1.60 1.56 1.54 1.54 1.56 1.61 1.62 1.61 1.64 1.61 1.57 1.54 1.51 1.41 1.24 1.08 1.06 1.03 1.05 1.11 1.15 1.14 1.10 0.98 0.85 0.87 1.00 1.22 1.36 1.39 1.50 1.74 1.95 1.98 1.97 1.94 1.83 1.78 1.95 2.12 2.22
1.49 1.65 1.67 1.65 1.51 1.46 1.65 1.69 1.64 1.62 1.58 1.63 1.65 1.61 1.56 1.48 1.28 1.12 1.04 0.98 0.99 1.03 1.11 1.13 1.08 0.99 0.86 0.88 0.95 1.09 1.19 1.34 1.59 1.89 2.04 1.99 1.77 1.62 1.64 1.66 1.74 1.89 1.98
1.61 1.69 1.74 1.65 1.62 1.60 1.65 1.67 1.62 1.61 1.53 1.48 1.48 1.49 1.44 1.35 1.22 1.09 1.02 0.97 0.97 0.96 0.99 1.03 1.02 1.02 1.00 1.05 1.09 1.12 1.20 1.42 1.65 1.78 1.79 1.68 1.56 1.51 1.56 1.67 1.67 1.83 1.88
1.69 1.67 1.69 1.69 1.68 1.66 1.63 1.54 1.49 1.47 1.42 1.36 1.33 1.34 1.24 1.17 1.07 0.94 0.91 0.89 0.92 0.95 0.97 1.05 1.13 1.18 1.18 1.17 1.21 1.29 1.35 1.46 1.51 1.58 1.56 1.50 1.46 1.51 1.56 1.57 1.66 1.80 1.96
1.58 1.56 1.56 1.59 1.61 1.61 1.48 1.37 1.37 1.31 1.20 1.13 1.10 1.09 1.05 1.02 0.98 0.95 0.88 0.87 0.85 0.87 0.95 1.10 1.28 1.36 1.36 1.31 1.28 1.31 1.34 1.37 1.39 1.36 1.38 1.40 1.44 1.46 1.46 1.48 1.62 1.71 1.83
1.41 1.38 1.39 1.47 1.50 1.45 1.42 1.30 1.20 1.10 1.11 1.05 1.00 1.02 1.01 1.01 0.93 0.82 0.81 0.82 0.85 0.97 1.03 1.22 1.37 1.43 1.44 1.31 1.25 1.22 1.20 1.22 1.19 1.21 1.27 1.34 1.39 1.38 1.39 1.43 1.53 1.66 1.76
1.29 1.27 1.19 1.21 1.31 1.32 1.31 1.28 1.29 1.11 1.01 0.98 0.96 0.97 1.00 0.97 0.90 0.85 0.82 0.88 0.91 0.97 1.02 1.16 1.31 1.40 1.45 1.30 1.21 1.22 1.22 1.21 1.20 1.23 1.27 1.30 1.34 1.35 1.39 1.45 1.51 1.60 1.66
1.18 1.12 1.09 1.15 1.16 1.16 1.19 1.12 1.11 1.18 1.19 1.12 1.03 1.02 0.97 0.95 0.89 0.86 0.87 0.97 1.02 1.02 1.08 1.13 1.21 1.33 1.38 1.33 1.25 1.26 1.25 1.26 1.27 1.29 1.29 1.32 1.36 1.39 1.36 1.35 1.42 1.47 1.53
1.08 1.06 1.06 1.06 1.10 1.14 1.14 1.08 1.00 1.02 1.08 1.11 1.11 1.02 0.98 1.00 0.97 0.93 0.91 0.90 0.94 1.00 1.03 1.05 1.09 1.18 1.27 1.34 1.36 1.33 1.27 1.24 1.26 1.30 1.30 1.34 1.37 1.37 1.36 1.31 1.34 1.38 1.42
1.01 0.98 0.96 0.98 1.01 1.05 1.07 1.06 1.05 1.02 0.98 1.04 1.07 0.98 0.92 0.97 0.99 0.98 0.93 0.92 0.99 1.02 1.02 1.05 1.08 1.11 1.16 1.22 1.29 1.29 1.25 1.18 1.17 1.25 1.33 1.38 1.40 1.39 1.33 1.25 1.29 1.39 1.45
0.83 0.82 0.79 0.77 0.81 0.85 0.86 0.90 0.96 0.93 0.95 0.99 0.95 0.91 0.94 0.95 1.02 0.98 0.94 0.94 1.04 1.13 1.15 1.11 1.08 1.10 1.10 1.10 1.13 1.19 1.21 1.15 1.14 1.19 1.29 1.36 1.34 1.32 1.29 1.23 1.19 1.22 1.27
0.75 0.75 0.67 0.67 0.68 0.71 0.73 0.74 0.76 0.79 0.82 0.84 0.81 0.81 0.90 0.89 0.95 0.97 0.96 0.95 1.00 1.08 1.15 1.15 1.11 1.07 1.06 1.08 1.06 1.07 1.10 1.12 1.12 1.14 1.19 1.22 1.22 1.22 1.22 1.19 1.14 1.15 1.19
0.69 0.73 0.71 0.69 0.71 0.73 0.73 0.72 0.69 0.67 0.73 0.79 0.78 0.74 0.76 0.85 0.91 0.97 0.99 0.99 1.02 1.05 1.08 1.09 1.09 1.03 1.00 0.98 0.97 0.95 0.97 1.01 0.97 0.97 1.04 1.07 1.07 1.09 1.13 1.14 1.13 1.17 1.21
0.67 0.72 0.71 0.67 0.69 0.74 0.75 0.72 0.67 0.64 0.72 0.80 0.82 0.81 0.80 0.83 0.87 0.95 1.00 1.02 1.01 1.00 0.99 0.99 0.96 0.94 0.95 0.96 0.94 0.88 0.87 0.89 0.84 0.81 0.88 0.94 0.99 1.03 1.08 1.14 1.17 1.17 1.22
0.63 0.66 0.68 0.65 0.65 0.71 0.71 0.68 0.68 0.69 0.69 0.77 0.84 0.86 0.82 0.83 0.88 0.95 1.01 1.04 1.04 0.99 0.93 0.92 0.89 0.88 0.89 0.87 0.84 0.82 0.86 0.86 0.84 0.82 0.85 0.92 0.94 1.00 1.07 1.13 1.18 1.15 1.17
0.62 0.66 0.65 0.68 0.69 0.65 0.66 0.67 0.68 0.69 0.70 0.71 0.74 0.82 0.83 0.86 0.87 0.87 0.86 0.91 0.96 0.96 0.87 0.81 0.77 0.78 0.79 0.78 0.76 0.82 0.80 0.74 0.76 0.86 0.87 0.90 0.95 0.99 1.04 1.08 1.09 1.11 1.12